K42C Weather Reports


Display with metric or nautical units.
time (UTC)temp
F
wind
direction
speed
MPH
gust
MPH
rain 1hr
in
rain 24hr
in
rain mn
in
humidity
%
barometer
mb
20260509052012 44 165 0.0 0.0 0.00 0.00 0.00 64 968.6
20260509051335 45 165 0.0 0.0 0.00 0.00 0.00 65 968.6
20260509050654 45 165 0.0 0.0 0.00 0.00 0.00 63 968.7
20260509050016 45 165 0.0 0.0 0.00 0.00 0.00 62 968.7
20260509045335 46 165 0.0 0.0 0.00 0.00 0.00 61 968.7
20260509044658 46 165 0.0 0.0 0.00 0.00 0.00 59 968.7
20260509044017 46 165 0.0 0.0 0.00 0.00 0.00 58 968.8
20260509043339 47 165 0.0 0.0 0.00 0.00 0.00 58 968.7
20260509042658 47 165 0.0 0.0 0.00 0.00 0.00 57 968.8
20260509042021 48 165 0.0 0.0 0.00 0.00 0.00 56 968.8
20260509041340 48 165 0.0 0.0 0.00 0.00 0.00 55 968.9
20260509040702 49 165 0.0 0.0 0.00 0.00 0.00 54 969.0
20260509040021 49 165 0.0 0.0 0.00 0.00 0.00 54 969.1
20260509034702 50 165 0.0 0.0 0.00 0.00 0.00 52 969.2
20260509034025 50 165 0.0 0.0 0.00 0.00 0.00 52 969.3
20260509033344 50 165 0.0 0.0 0.00 0.00 0.00 53 969.3
20260509032025 49 165 0.0 0.0 0.00 0.00 0.00 56 969.4
20260509031348 48 165 0.0 0.0 0.00 0.00 0.00 58 969.5
20260509030707 47 165 0.0 0.0 0.00 0.00 0.00 59 969.5
20260509030029 47 165 0.0 0.0 0.00 0.00 0.00 58 969.7
20260509024711 48 165 0.0 0.0 0.00 0.00 0.00 55 969.8
20260509024029 48 165 0.0 0.0 0.00 0.00 0.00 55 969.7
20260509023352 49 165 0.0 0.0 0.00 0.00 0.00 54 969.7
20260509022711 49 165 0.0 0.0 0.00 0.00 0.00 53 969.7
20260509022033 49 165 0.0 0.0 0.00 0.00 0.00 51 969.6
20260509020715 50 165 0.0 0.0 0.00 0.00 0.00 48 969.6
20260509020034 51 165 0.0 0.0 0.00 0.00 0.00 47 969.6
20260509015356 52 165 0.0 0.0 0.00 0.00 0.00 46 969.6
20260509014715 52 165 0.0 0.0 0.00 0.00 0.00 46 969.5
20260509014038 53 165 0.0 0.0 0.00 0.00 0.00 45 969.4
20260509013357 54 165 0.0 0.0 0.00 0.00 0.00 44 969.3
20260509012719 55 165 0.0 0.0 0.00 0.00 0.00 43 969.2
20260509012038 56 165 0.0 0.0 0.00 0.00 0.00 42 969.1
20260509011400 57 165 0.0 0.0 0.00 0.00 0.00 40 969.2
20260509010719 57 165 0.0 0.0 0.00 0.00 0.00 39 969.1
20260509005401 58 165 0.0 0.0 0.00 0.00 0.00 39 969.2
20260509004723 58 124 0.0 0.0 0.00 0.00 0.00 39 969.1
20260509004042 58 187 0.0 0.0 0.00 0.00 0.00 39 969.1
20260509003405 58 229 0.0 5.0 0.00 0.00 0.00 39 969.1
20260509002724 58 159 1.0 8.0 0.00 0.00 0.00 38 969.0
20260509002047 59 152 2.0 0.0 0.00 0.00 0.00 38 969.0
20260509001405 59 191 3.0 0.0 0.00 0.00 0.00 37 968.9
20260509000728 59 155 2.0 3.0 0.00 0.00 0.00 37 968.9
20260509000047 60 229 6.0 3.0 0.00 0.00 0.00 37 968.9
20260508235410 60 193 1.0 0.0 0.00 0.00 0.00 37 968.9
20260508234729 60 221 6.0 4.0 0.00 0.00 0.00 36 968.9
20260508234051 60 233 0.0 0.0 0.00 0.00 0.00 37 969.0
20260508233410 61 218 4.0 3.0 0.00 0.00 0.00 36 969.0
20260508232733 61 179 0.0 5.0 0.00 0.00 0.00 37 969.0
20260508232052 61 226 4.0 0.0 0.00 0.00 0.00 37 969.1
20260508231414 61 243 2.0 0.0 0.00 0.00 0.00 36 969.1
20260508230733 61 221 0.0 0.0 0.00 0.00 0.00 37 969.2
20260508225415 61 217 7.0 9.0 0.00 0.00 0.00 35 969.4
20260508224738 61 264 3.0 7.0 0.00 0.00 0.00 36 969.5
20260508224057 61 212 7.0 6.0 0.00 0.00 0.00 36 969.6
20260508223419 61 229 8.0 9.0 0.00 0.00 0.00 36 969.5
20260508222738 60 200 1.0 0.0 0.00 0.00 0.00 37 969.5
20260508222101 60 246 4.0 5.0 0.00 0.00 0.00 37 969.5
20260508221420 61 212 2.0 4.0 0.00 0.00 0.00 37 969.3
20260508220742 61 221 3.0 3.0 0.00 0.00 0.00 36 969.4
20260508215424 61 280 6.0 0.0 0.00 0.00 0.00 36 969.3
20260508214743 62 217 2.0 5.0 0.00 0.00 0.00 36 969.3
20260508213425 62 235 6.0 3.0 0.00 0.00 0.00 34 969.2
20260508212747 62 231 4.0 9.0 0.00 0.00 0.00 33 969.3
20260508211429 62 280 2.0 3.0 0.00 0.00 0.00 34 969.2
20260508210748 62 311 1.0 5.0 0.00 0.00 0.00 33 969.3
20260508210111 63 188 5.0 3.0 0.00 0.00 0.00 32 969.4
20260508205430 63 330 6.0 2.0 0.00 0.00 0.00 33 969.3
20260508204752 63 252 6.0 5.0 0.00 0.00 0.00 32 969.5
20260508204111 63 291 3.0 7.0 0.00 0.00 0.00 32 969.6
20260508203434 63 243 8.0 5.0 0.00 0.00 0.00 33 969.6
20260508202753 63 226 2.0 0.0 0.00 0.00 0.00 34 969.6
20260508202117 62 262 4.0 10.0 0.00 0.00 0.00 33 969.8
20260508201435 62 267 5.0 5.0 0.00 0.00 0.00 33 969.6
20260508200757 61 205 8.0 6.0 0.00 0.00 0.00 35 969.8
20260508195439 62 114 7.0 4.0 0.00 0.00 0.00 34 969.8
20260508194121 62 274 5.0 10.0 0.00 0.00 0.00 34 970.0
20260508193440 62 285 0.0 0.0 0.00 0.00 0.00 35 970.0
20260508192802 62 301 4.0 8.0 0.00 0.00 0.00 34 970.1
20260508192121 62 276 7.0 3.0 0.00 0.00 0.00 33 970.2
20260508191444 62 266 8.0 3.0 0.00 0.00 0.00 36 970.2
20260508191342 62 246 4.0 5.0 0.00 0.00 0.00 35 970.3
20260508190803 62 246 4.0 5.0 0.00 0.00 0.00 35 970.3
20260508190126 62 226 1.0 0.0 0.00 0.00 0.00 37 970.4
20260508185445 62 156 6.0 11.0 0.00 0.00 0.00 35 970.4
20260508184808 62 308 3.0 0.0 0.00 0.00 0.00 35 970.4
20260508184127 62 308 2.0 7.0 0.00 0.00 0.00 36 970.5
20260508183449 61 294 2.0 0.0 0.00 0.00 0.00 36 970.5
20260508182131 61 0 5.0 4.0 0.00 0.00 0.00 36 970.7
20260508181450 61 259 4.0 0.0 0.00 0.00 0.00 38 970.9
20260508180813 61 207 0.0 0.0 0.00 0.00 0.00 36 970.8
20260508180132 61 174 6.0 5.0 0.00 0.00 0.00 35 971.0
20260508175455 61 309 7.0 7.0 0.00 0.00 0.00 36 971.0
20260508174814 61 242 7.0 8.0 0.00 0.00 0.00 36 971.2
20260508174136 60 221 10.0 8.0 0.00 0.00 0.00 40 971.1
20260508173456 60 195 6.0 8.0 0.00 0.00 0.00 39 971.3
20260508172818 60 249 7.0 2.0 0.00 0.00 0.00 39 971.4
20260508172137 60 205 8.0 9.0 0.00 0.00 0.00 40 971.6
20260508171500 60 207 1.0 6.0 0.00 0.00 0.00 40 971.6
20260508170819 60 152 8.0 8.0 0.00 0.00 0.00 39 971.7
20260508170142 60 274 2.0 5.0 0.00 0.00 0.00 41 971.7
20260508165501 59 283 7.0 6.0 0.00 0.00 0.00 41 971.8
20260508164824 59 249 6.0 5.0 0.00 0.00 0.00 41 971.8
20260508164143 59 238 4.0 5.0 0.00 0.00 0.00 42 971.8
20260508163506 59 200 11.0 7.0 0.00 0.00 0.00 41 972.1
20260508162825 59 201 8.0 11.0 0.00 0.00 0.00 41 972.2
20260508162148 59 225 9.0 4.0 0.00 0.00 0.00 42 972.1
20260508161507 58 193 4.0 8.0 0.00 0.00 0.00 41 972.2
20260508160829 58 243 4.0 7.0 0.00 0.00 0.00 41 972.2
20260508160149 58 246 4.0 10.0 0.00 0.00 0.00 41 972.3
20260508155511 58 262 7.0 9.0 0.00 0.00 0.00 42 972.3
20260508154830 58 267 3.0 4.0 0.00 0.00 0.00 42 972.4
20260508154153 57 215 0.0 4.0 0.00 0.00 0.00 43 972.6
20260508152835 57 194 9.0 0.0 0.00 0.00 0.00 44 972.6
20260508152154 57 263 4.0 6.0 0.00 0.00 0.00 44 972.6
20260508151517 56 203 2.0 8.0 0.00 0.00 0.00 44 972.7
20260508150836 56 139 3.0 2.0 0.00 0.00 0.00 48 972.8
20260508150159 56 127 4.0 5.0 0.00 0.00 0.00 48 972.9
20260508145518 56 233 3.0 5.0 0.00 0.00 0.00 48 972.9
20260508144841 55 194 6.0 0.0 0.00 0.00 0.00 52 973.1
20260508143523 54 177 7.0 9.0 0.00 0.00 0.00 51 973.3
20260508142842 54 186 6.0 0.0 0.00 0.00 0.00 54 973.3
20260508142205 53 201 4.0 1.0 0.00 0.00 0.00 56 973.4
20260508141524 53 179 4.0 6.0 0.00 0.00 0.00 58 973.4
20260508140847 53 159 6.0 4.0 0.00 0.00 0.00 58 973.5
20260508140206 52 152 5.0 9.0 0.00 0.00 0.00 61 973.5
20260508135528 52 183 4.0 8.0 0.00 0.00 0.00 65 973.6
20260508134848 51 297 3.0 0.0 0.00 0.00 0.00 68 973.7
20260508134210 50 190 4.0 7.0 0.00 0.00 0.00 71 974.0
20260508133530 49 191 5.0 7.0 0.00 0.00 0.00 73 974.0
20260508132852 49 225 5.0 0.0 0.00 0.00 0.00 75 974.0
20260508132212 48 203 5.0 2.0 0.00 0.00 0.00 77 974.2
20260508131534 47 205 0.0 0.0 0.00 0.00 0.00 79 974.3
20260508130853 47 181 5.0 0.0 0.00 0.00 0.00 80 974.5
20260508130216 46 159 1.0 0.0 0.00 0.00 0.00 82 974.5
20260508125535 45 193 0.0 0.0 0.00 0.00 0.00 85 974.5
20260508124858 44 187 0.0 0.0 0.00 0.00 0.00 89 974.8
20260508124217 43 187 0.0 0.0 0.00 0.00 0.00 92 974.8
20260508123540 42 165 0.0 0.0 0.00 0.00 0.00 95 974.8
20260508122859 40 170 0.0 0.0 0.00 0.00 0.00 98 974.8
20260508114227 32 339 0.0 0.0 0.00 0.00 0.00 100 975.3
20260508112909 31 339 0.0 0.0 0.00 0.00 0.00 100 975.4
20260508111551 30 339 0.0 0.0 0.00 0.00 0.00 100 975.4
20260508110232 29 339 0.0 0.0 0.00 0.00 0.00 100 975.5
20260508105551 29 339 0.0 0.0 0.00 0.00 0.00 100 975.4
20260508104914 29 339 0.0 0.0 0.00 0.00 0.00 100 975.4
20260508104233 29 339 0.0 0.0 0.00 0.00 0.00 100 975.3
20260508103556 29 339 0.0 0.0 0.00 0.00 0.00 100 975.3
20260508102237 29 339 0.0 0.0 0.00 0.00 0.00 100 975.2
20260508101556 29 339 0.0 0.0 0.00 0.00 0.00 100 975.1
20260508100919 29 339 0.0 0.0 0.00 0.00 0.00 100 975.2
20260508100238 29 339 0.0 0.0 0.00 0.00 0.00 100 975.3
20260508095644 29 339 0.0 0.0 0.00 0.00 0.00 100 975.3
20260508095601 29 339 0.0 0.0 0.00 0.00 0.00 100 975.3
20260508094920 29 339 0.0 0.0 0.00 0.00 0.00 100 975.5
20260508094242 29 339 0.0 0.0 0.00 0.00 0.00 100 975.5
20260508093601 29 339 0.0 0.0 0.00 0.00 0.00 100 975.6
20260508093038 29 339 0.0 0.0 0.00 0.00 0.00 100 975.7
20260508092924 29 339 0.0 0.0 0.00 0.00 0.00 100 975.7
20260508092243 30 339 0.0 0.0 0.00 0.00 0.00 100 975.6
20260508091717 30 339 0.0 0.0 0.00 0.00 0.00 100 975.5
20260508091606 30 339 0.0 0.0 0.00 0.00 0.00 100 975.5
20260508090925 30 339 0.0 0.0 0.00 0.00 0.00 100 975.6
20260508090247 30 339 0.0 0.0 0.00 0.00 0.00 100 975.5
20260508085606 30 339 0.0 0.0 0.00 0.00 0.00 100 975.5
20260508084929 30 339 0.0 0.0 0.00 0.00 0.00 100 975.5
20260508084440 30 339 0.0 0.0 0.00 0.00 0.00 100 975.6
20260508084248 30 339 0.0 0.0 0.00 0.00 0.00 100 975.6
20260508083718 30 339 0.0 0.0 0.00 0.00 0.00 100 975.6
20260508083611 30 339 0.0 0.0 0.00 0.00 0.00 100 975.6
20260508083224 30 339 0.0 0.0 0.00 0.00 0.00 100 975.6
20260508082931 30 339 0.0 0.0 0.00 0.00 0.00 100 975.6
20260508082252 30 339 0.0 0.0 0.00 0.00 0.00 100 975.6
20260508081612 31 339 0.0 0.0 0.00 0.00 0.00 100 975.6
20260508081233 31 339 0.0 0.0 0.00 0.00 0.00 100 975.7
20260508080934 31 339 0.0 0.0 0.00 0.00 0.00 100 975.7
20260508080422 31 339 0.0 0.0 0.00 0.00 0.00 100 975.6
20260508080253 31 339 0.0 0.0 0.00 0.00 0.00 100 975.6
20260508075616 31 339 0.0 0.0 0.00 0.00 0.00 100 975.6
20260508074935 31 339 0.0 0.0 0.00 0.00 0.00 100 975.7
20260508074441 31 339 0.0 0.0 0.00 0.00 0.00 100 975.6
20260508074258 31 339 0.0 0.0 0.00 0.00 0.00 100 975.6
20260508073616 31 339 0.0 0.0 0.00 0.00 0.00 100 975.6
20260508072939 31 339 0.0 0.0 0.00 0.00 0.00 100 975.6
20260508072258 32 339 0.0 0.0 0.00 0.00 0.00 100 975.5
20260508071621 32 339 0.0 0.0 0.00 0.00 0.00 100 975.6
20260508070940 32 339 0.0 0.0 0.00 0.00 0.00 100 975.7
20260508070302 33 339 0.0 0.0 0.00 0.00 0.00 100 975.6
20260508065621 33 339 0.0 0.0 0.00 0.00 0.00 100 975.5
20260508064944 33 339 0.0 0.0 0.00 0.00 0.00 100 975.6
20260508064303 34 339 0.0 0.0 0.00 0.00 0.00 100 975.6
20260508063626 34 339 0.0 0.0 0.00 0.00 0.00 100 975.6
20260508062945 34 339 0.0 0.0 0.00 0.00 0.00 100 975.7
20260508062307 34 339 0.0 0.0 0.00 0.00 0.00 100 975.6
20260508061626 34 329 2.0 5.0 0.00 0.00 0.00 100 975.8
20260508060949 35 158 4.0 0.0 0.00 0.00 0.00 100 975.7
20260508060308 34 338 0.0 0.0 0.00 0.00 0.00 100 975.8
20260508055631 34 338 0.0 0.0 0.00 0.00 0.00 100 975.9
20260508054950 34 338 0.0 0.0 0.00 0.00 0.00 100 976.0
20260508054312 35 338 0.0 0.0 0.00 0.00 0.00 100 975.8
20260508053631 35 338 0.0 0.0 0.00 0.00 0.00 100 975.7
20260508052954 35 338 0.0 0.0 0.00 0.00 0.00 99 975.7